FW8888 Weather Reports


time (UTC)temp
C
wind
direction
speed
KPH
gust
KPH
rain 1hr
cm
rain 24hr
cm
rain mn
cm
humidity
%
barometer
mb
20260505164605 25 230 1.6 9.7 0.00 0.00 0.00 49 1016.9
20260505163102 24 196 3.2 11.3 0.00 0.00 0.00 50 1017.1
20260505161607 24 232 1.6 6.4 0.00 0.00 0.00 55 1017.1
20260505153101 22 243 3.2 11.3 0.00 0.00 0.00 58 1017.6
20260505151555 22 0 1.6 6.4 0.00 0.00 0.00 61 1017.7
20260505130110 17 225 1.6 16.1 0.00 0.00 0.00 76 1017.5
20260505124600 16 219 0.0 4.8 0.00 0.00 0.00 78 1017.7
20260505123054 15 70 0.0 3.2 0.00 0.00 0.00 79 1017.7
20260505121552 15 231 1.6 3.2 0.00 0.00 0.00 81 1017.7
20260505120108 13 215 0.0 4.8 0.00 0.00 0.00 83 1017.5
20260505114555 13 216 0.0 3.2 0.00 0.00 0.00 83 1017.5
20260505113059 13 207 0.0 3.2 0.00 0.00 0.00 84 1017.4
20260505111553 12 0 0.0 0.0 0.00 0.00 0.00 86 1017.2
20260505101552 11 0 0.0 0.0 0.00 0.00 0.00 90 1016.6
20260505100051 11 0 0.0 0.0 0.00 0.00 0.00 90 1016.5
20260505094550 11 0 0.0 0.0 0.00 0.00 0.00 90 1016.3
20260505093050 11 0 0.0 1.6 0.00 0.00 0.00 90 1016.2
20260505091550 11 0 0.0 0.0 0.00 0.00 0.00 88 1016.0
20260505090053 11 0 0.0 0.0 0.00 0.00 0.00 88 1016.1
20260505084548 11 0 0.0 0.0 0.00 0.00 0.00 88 1016.0
20260505083049 11 0 0.0 0.0 0.00 0.00 0.00 87 1016.0
20260505081554 12 0 0.0 0.0 0.00 0.00 0.00 85 1015.7
20260505080050 12 0 0.0 0.0 0.00 0.00 0.00 84 1015.7
20260505074548 12 0 0.0 0.0 0.00 0.00 0.00 83 1015.6
20260505073050 13 0 0.0 0.0 0.00 0.00 0.00 83 1015.6
20260505071554 13 0 0.0 0.0 0.00 0.00 0.00 82 1015.6
20260505070053 14 0 0.0 1.6 0.00 0.00 0.00 76 1015.5
20260505064549 15 0 0.0 1.6 0.00 0.00 0.00 74 1015.5
20260505063052 15 206 0.0 4.8 0.00 0.00 0.00 72 1015.6
20260505061552 15 240 0.0 1.6 0.00 0.00 0.00 72 1015.5
20260505060050 16 212 0.0 3.2 0.00 0.00 0.00 71 1015.6
20260505054557 16 221 1.6 4.8 0.00 0.00 0.00 70 1015.7
20260505053101 16 207 1.6 4.8 0.00 0.00 0.00 70 1015.7
20260505051549 16 224 1.6 4.8 0.00 0.00 0.00 69 1015.7
20260505041552 17 226 3.2 8.0 0.00 0.00 0.00 66 1015.7
20260505040052 17 224 1.6 11.3 0.00 0.00 0.00 65 1015.8
20260505034550 18 230 1.6 6.4 0.00 0.00 0.00 64 1015.7
20260505033054 18 221 1.6 9.7 0.00 0.00 0.00 64 1015.8
20260505031549 18 177 4.8 11.3 0.00 0.00 0.00 64 1015.7
20260505030053 18 213 1.6 8.0 0.00 0.00 0.00 64 1015.6
20260505024552 19 238 3.2 12.9 0.00 0.00 0.00 63 1015.6
20260505023056 19 203 3.2 11.3 0.00 0.00 0.00 61 1015.7
20260505021549 20 186 4.8 12.9 0.00 0.00 0.00 59 1015.5
20260505020055 20 223 1.6 16.1 0.00 0.00 0.00 55 1015.3
20260505014550 20 222 3.2 12.9 0.00 0.00 0.00 50 1015.0
20260505013051 20 234 0.0 1.6 0.00 0.00 0.00 49 1014.9
20260505011552 20 0 0.0 3.2 0.00 0.00 0.00 48 1014.5
20260505010051 21 0 0.0 4.8 0.00 0.00 0.00 46 1014.4
20260505004552 21 0 1.6 4.8 0.00 0.00 0.00 45 1014.2
20260505003057 21 0 0.0 1.6 0.00 0.00 0.00 45 1013.9
20260505001556 22 219 0.0 4.8 0.00 0.00 0.00 42 1013.9
20260505000105 22 257 1.6 4.8 0.00 0.00 0.00 41 1013.9
20260504234556 23 0 0.0 6.4 0.00 0.00 0.00 39 1013.7
20260504233055 23 231 3.2 12.9 0.00 0.00 0.00 38 1013.5
20260504231558 24 226 0.0 6.4 0.00 0.00 0.00 35 1013.4
20260504230050 24 243 1.6 8.0 0.00 0.00 0.00 34 1013.5
20260504224550 24 210 3.2 8.0 0.00 0.00 0.00 34 1013.5
20260504223051 25 214 3.2 6.4 0.00 0.00 0.00 33 1013.5
20260504221554 25 236 1.6 6.4 0.00 0.00 0.00 34 1013.5
20260504220115 25 215 1.6 6.4 0.00 0.00 0.00 35 1013.6
20260504214558 25 222 3.2 9.7 0.00 0.00 0.00 36 1013.6
20260504213054 25 159 6.4 14.5 0.00 0.00 0.00 34 1013.6
20260504211555 25 222 3.2 9.7 0.00 0.00 0.00 35 1013.7
20260504210052 24 200 1.6 8.0 0.00 0.00 0.00 37 1013.7
20260504204559 25 221 1.6 8.0 0.00 0.00 0.00 37 1013.7
20260504203055 24 0 4.8 12.9 0.00 0.00 0.00 35 1013.9
20260504201553 24 205 0.0 9.7 0.00 0.00 0.00 35 1014.1
20260504200057 24 0 0.0 9.7 0.00 0.00 0.00 36 1014.1
20260504194553 24 224 1.6 6.4 0.00 0.00 0.00 37 1014.4
20260504193051 23 216 0.0 9.7 0.00 0.00 0.00 37 1014.6
20260504191557 24 203 1.6 8.0 0.00 0.00 0.00 37 1014.7
20260504190108 23 176 1.6 9.7 0.00 0.00 0.00 38 1014.6
20260504184609 23 219 1.6 8.0 0.00 0.00 0.00 39 1015.0
20260504183052 23 0 1.6 11.3 0.00 0.00 0.00 39 1015.1
20260504181549 23 212 3.2 8.0 0.00 0.00 0.00 38 1015.4
20260504180053 22 0 1.6 6.4 0.00 0.00 0.00 39 1015.5
20260504174559 22 226 1.6 9.7 0.00 0.00 0.00 40 1015.5
20260504173102 22 212 0.0 4.8 0.00 0.00 0.00 42 1015.8
20260504171553 22 225 1.6 8.0 0.00 0.00 0.00 41 1016.1